User: anonymous
Location: Unspecified
(0.0000°N, 0.0000°E)
Time: 13:47:55
(UTC+00:00)
Language:

A-11 Canister half - Orbit

View from above orbital plane
View from above orbital plane
View from above satellite
View from above satellite

Ground track
Ground track

The orbit data is extracted from the following two-line orbital elements,

1 00053U 60009E   14109.82668623 -.00000084  00000-0  00000+0 0  5032
2 00053 047.2773 358.9744 0098131 271.9997 205.8091 12.17138110394440
Epoch (UTC): 19 April 2014 19:50:25
Eccentricity: 0.0098131
inclination: 47.2773°
perigee height: 1526 km
apogee height: 1683 km
right ascension of ascending node: 358.9744°
argument of perigee: 271.9997°
revolutions per day: 12.17138110
mean anomaly at epoch: 205.8091°
orbit number at epoch: 39444

The dashed part of the orbit path shows where the satellite is in the earth's shadow,  

DLR